DELTA 1 DEB, 7160

Orbit data source: Space-Track

DELTA 1 DEB, 7160 is space debris in SSO originally from a launch on Tue, 06 Nov 1973 UTC launched from the Air Force Western Test Range (AFWTR). Debris objects in space refer to the collection of defunct objects orbiting the Earth. Examples of debris include non-operational satellites, rocket bodies, and fragments generated from explosions, collisions, or faulty payload assembly.

Loading next visibility...
Identifier
7160, 1973-086DY
Orbit
SSO
Country
Flag of USUS
Related business
Manufacturer
Unknown
Mission
Spacecraft
Bus & Motor
Unknown
Mass
Unknown
Launch date (UTC)
1973-11-06 (52 years ago)
Launch vehicle
Unknown
Launch site
Air Force Western Test Range (AFWTR)
Object type
Payload
Rocket body
Debris
Shape & HBR
Unknown shape, 0.1 m
Radar Cross Section
Small (<0.1 m²)

Expand to show TLE details & history
Last TLE update: 11 hours ago

TLE from 11 hours ago
0 DELTA 1 DEB
1 07160U 73086DY  25293.42396538  .00000341  00000-0  30364-2 0  9995
2 07160 102.1067 256.4863 0083425  70.0153  55.7976 12.35137644336181
Epoch: 2025-10-20T10:10Z
TLE epoch observation values (Epoch: 2025-10-20T10:10:30.608Z)
Latitude
51.80398°
Longitude
-89.52669°
Altitude
1,498.717 km
Speed
7.136 km/s
True Right ascension
06h 08m 54s
True Declination
51° 39' 09"
Sunlit
Object was in daylight at epoch
Visualization orbit readout
Latitude
Unknown
Longitude
Unknown
Altitude
Unknown
Speed
Unknown
Apparent Right ascension
Unknown
Apparent Declination
Unknown
Sunlit
N/A
Visualization observer readout
Local Sidereal Time
16:14:19
Azimuth
Unknown
Elevation
Unknown
Doppler factor
Unknown
Orbital elements
Apogee altitude
1,590.801 km
Perigee altitude
1,458.939 km
Semi-major axis
7,903.007 km
Eccentricity
0.00834
Inclination
102.1067°
RAAN
256.4863°
Arg. of periapsis
70.0153°
True anomaly
56.59289°
Mean anomaly
55.7976°
Eccentric anomaly
56.19478°
Mean motion
3.08926 °/min
Orbital period
116.53 mins
BSTAR
0.0030364
Loading maneuver chart data...
Computing Atmospheric mass density...
Loading historical data...
Loading historical data...
Loading historical data...
Loading historical data...
Loading historical data...
Loading historical data...
Loading historical data...

Documentation

Showing up to 5 results
|